contact:dominique.lefevre@mio.osupytheas.fr, maurice.libes@osupytheas.fr, didier.mallarino@osupytheas.fr
Project:EMSO http://www.emso-fr.org/EMSO-France
Depth: 2436.0 m
Title:EMSO Ligure Ouest : Data MII capteur AQUADOPP
Date,Latitude,Longitude,X_East,Y_North,Z_Up,Amplitude_X,Amplitude_Y,Amplitude_Z,Batterie,SoundSpeed,Heading,Pitch,Roll,Pressure,TIS,Speed,Direction
, degrees North, degrees East, m.s-1, m.s-1,m.s-1, 1, 1, 1, Volt, m.s-1, degree, degree, degree, dbar, degree_C, m.s-1, degree
2020-06-17T00:04:03,42.805,6.029,0.003,-0.019,0.012,102.0,106.0,100.0,13.4,1505.3,326.7,-0.8,1.8,2470.405,13.31,0.019,171.0
2020-06-17T00:07:03,42.805,6.029,0.006,0.004,0.008,101.0,106.0,99.0,13.3,1505.3,322.9,-0.7,1.8,2470.351,13.32,0.007,56.3
2020-06-17T00:13:03,42.805,6.029,-0.002,0.0,0.014,101.0,106.0,100.0,13.4,1505.3,324.4,-0.7,1.8,2470.395,13.33,0.002,270.0
2020-06-17T00:16:03,42.805,6.029,0.012,0.005,0.004,101.0,106.0,101.0,13.4,1505.3,324.2,-0.7,1.8,2470.364,13.33,0.013,67.4
2020-06-17T00:19:03,42.805,6.029,0.016,0.003,0.01,102.0,107.0,99.0,13.3,1505.3,325.4,-0.7,1.8,2470.373,13.33,0.016,79.4
2020-06-17T00:22:03,42.805,6.029,0.005,-0.01,-0.005,101.0,105.0,100.0,13.4,1505.3,327.9,-0.7,1.8,2470.411,13.33,0.011,153.4
2020-06-17T00:25:03,42.805,6.029,0.006,-0.016,-0.01,100.0,106.0,100.0,13.4,1505.3,325.0,-0.7,1.8,2470.383,13.33,0.017,159.4
2020-06-17T00:28:03,42.805,6.029,0.006,-0.018,-0.041,102.0,107.0,100.0,13.3,1505.3,326.0,-0.7,1.8,2470.355,13.33,0.018,161.6
2020-06-17T00:31:03,42.805,6.029,-0.026,0.001,-0.018,102.0,106.0,99.0,13.4,1505.3,323.1,-0.7,1.8,2470.407,13.33,0.026,272.2
2020-06-17T00:34:03,42.805,6.029,-0.004,0.007,-0.011,102.0,105.0,99.0,13.3,1505.3,327.9,-0.7,1.8,2470.375,13.33,0.008,330.3
2020-06-17T00:37:03,42.805,6.029,0.0,-0.005,-0.013,101.0,106.0,100.0,13.4,1505.3,325.7,-0.7,1.9,2470.386,13.33,0.005,180.0
2020-06-17T00:40:03,42.805,6.029,0.017,0.013,-0.013,103.0,106.0,99.0,13.3,1505.3,323.9,-0.7,1.8,2470.368,13.33,0.021,52.6
2020-06-17T00:43:03,42.805,6.029,0.023,0.006,-0.002,103.0,105.0,100.0,13.4,1505.3,323.4,-0.7,1.8,2470.34,13.33,0.023,75.4
2020-06-17T00:46:03,42.805,6.029,0.012,-0.016,-0.029,101.0,106.0,100.0,13.4,1505.3,327.9,-0.7,1.8,2470.372,13.33,0.02,143.1
2020-06-17T00:49:03,42.805,6.029,0.017,0.001,-0.022,102.0,107.0,99.0,13.3,1505.3,326.1,-0.7,1.8,2470.368,13.33,0.017,86.6
2020-06-17T00:52:03,42.805,6.029,0.018,0.014,-0.002,101.0,107.0,102.0,13.3,1505.3,326.5,-0.7,1.8,2470.377,13.33,0.022,52.1
2020-06-17T00:55:03,42.805,6.029,-0.002,-0.027,-0.019,102.0,106.0,100.0,13.4,1505.3,323.3,-0.7,1.9,2470.375,13.33,0.027,184.2
2020-06-17T00:58:03,42.805,6.029,-0.026,-0.016,-0.057,100.0,106.0,100.0,13.4,1505.3,324.8,-0.7,1.8,2470.389,13.33,0.03,238.4
2020-06-17T01:04:03,42.805,6.029,-0.002,-0.005,-0.037,102.0,108.0,102.0,13.4,1505.3,327.1,-0.7,1.8,2470.436,13.31,0.005,201.8
2020-06-17T01:07:03,42.805,6.029,-0.002,-0.008,-0.043,102.0,106.0,99.0,13.4,1505.3,324.7,-0.7,1.9,2470.416,13.32,0.008,194.0
2020-06-17T01:10:03,42.805,6.029,-0.017,-0.001,-0.053,102.0,105.0,100.0,13.4,1505.3,323.6,-0.7,1.9,2470.388,13.32,0.017,266.6
2020-06-17T01:13:03,42.805,6.029,0.005,-0.012,-0.001,102.0,106.0,99.0,13.3,1505.3,326.9,-0.7,1.9,2470.419,13.33,0.013,157.4
2020-06-17T01:16:03,42.805,6.029,0.019,-0.016,-0.011,102.0,105.0,100.0,13.4,1505.3,326.4,-0.7,1.8,2470.385,13.33,0.024,130.1
2020-06-17T01:19:03,42.805,6.029,-0.013,-0.001,-0.031,102.0,105.0,100.0,13.3,1505.3,327.0,-0.7,1.8,2470.413,13.33,0.013,265.6
2020-06-17T01:22:03,42.805,6.029,-0.003,-0.006,-0.061,101.0,105.0,100.0,13.4,1505.3,325.5,-0.7,1.9,2470.382,13.33,0.006,206.6
2020-06-17T01:25:03,42.805,6.029,0.011,-0.017,-0.008,101.0,107.0,99.0,13.4,1505.3,325.0,-0.7,1.8,2470.43,13.33,0.02,147.1
2020-06-17T01:28:03,42.805,6.029,-0.008,0.006,-0.018,101.0,105.0,99.0,13.3,1505.3,322.8,-0.7,1.8,2470.436,13.33,0.01,306.9
2020-06-17T01:31:03,42.805,6.029,-0.005,-0.011,-0.037,102.0,107.0,100.0,13.4,1505.3,325.1,-0.7,1.8,2470.436,13.33,0.012,204.4
2020-06-17T01:34:03,42.805,6.029,0.005,-0.018,-0.057,101.0,106.0,99.0,13.3,1505.3,323.7,-0.7,1.8,2470.395,13.33,0.018,164.5
2020-06-17T01:37:03,42.805,6.029,-0.017,-0.005,-0.011,101.0,106.0,99.0,13.4,1505.3,327.2,-0.7,1.8,2470.418,13.33,0.017,253.6
2020-06-17T01:40:03,42.805,6.029,-0.01,0.0,-0.009,101.0,105.0,100.0,13.3,1505.3,327.3,-0.7,1.8,2470.448,13.33,0.01,270.0
2020-06-17T01:43:03,42.805,6.029,-0.041,0.004,-0.022,101.0,105.0,99.0,13.4,1505.3,328.5,-0.7,1.8,2470.386,13.33,0.041,275.6
2020-06-17T01:46:03,42.805,6.029,0.017,-0.004,-0.034,102.0,106.0,100.0,13.3,1505.4,324.5,-0.7,1.8,2470.398,13.34,0.017,103.2
2020-06-17T01:49:03,42.805,6.029,0.0,0.001,-0.032,101.0,105.0,100.0,13.4,1505.4,324.8,-0.7,1.8,2470.42,13.34,0.001,0.0
2020-06-17T01:52:03,42.805,6.029,-0.031,0.018,-0.021,102.0,106.0,99.0,13.4,1505.4,327.1,-0.7,1.8,2470.402,13.34,0.035,300.1
2020-06-17T01:55:03,42.805,6.029,0.003,0.014,0.021,103.0,107.0,100.0,13.4,1505.4,323.7,-0.7,1.9,2470.421,13.34,0.014,12.1
2020-06-17T01:58:03,42.805,6.029,-0.003,-0.007,-0.032,102.0,104.0,99.0,13.3,1505.4,323.0,-0.7,1.8,2470.417,13.34,0.007,203.2
2020-06-17T02:04:03,42.805,6.029,-0.011,-0.015,-0.048,102.0,104.0,99.0,13.4,1505.3,326.3,-0.7,1.8,2470.473,13.31,0.018,216.3
2020-06-17T02:07:03,42.805,6.029,-0.008,-0.005,-0.007,102.0,105.0,100.0,13.4,1505.3,327.9,-0.7,1.8,2470.44,13.32,0.009,238.0
2020-06-17T02:10:03,42.805,6.029,-0.003,0.001,-0.013,101.0,104.0,99.0,13.3,1505.3,325.3,-0.7,1.8,2470.444,13.33,0.003,288.4
2020-06-17T02:13:03,42.805,6.029,0.006,-0.025,-0.05,101.0,105.0,98.0,13.4,1505.3,323.0,-0.7,1.8,2470.447,13.33,0.025,166.5
2020-06-17T02:16:03,42.805,6.029,0.0,0.012,-0.016,101.0,105.0,100.0,13.3,1505.3,324.8,-0.7,1.8,2470.433,13.33,0.012,0.0
2020-06-17T02:19:03,42.805,6.029,-0.004,-0.007,-0.046,102.0,106.0,100.0,13.4,1505.3,325.7,-0.7,1.8,2470.412,13.33,0.008,209.7
2020-06-17T02:22:03,42.805,6.029,-0.029,0.004,-0.032,102.0,105.0,99.0,13.3,1505.3,323.7,-0.7,1.9,2470.44,13.33,0.029,277.8
2020-06-17T02:25:03,42.805,6.029,-0.03,0.01,0.01,100.0,106.0,100.0,13.4,1505.3,324.4,-0.7,1.8,2470.462,13.33,0.031,288.4
2020-06-17T02:28:03,42.805,6.029,0.0,-0.008,-0.041,101.0,105.0,100.0,13.4,1505.4,326.1,-0.7,1.9,2470.453,13.34,0.008,180.0
2020-06-17T02:31:03,42.805,6.029,-0.007,-0.003,-0.034,101.0,106.0,99.0,13.4,1505.3,326.7,-0.7,1.9,2470.416,13.33,0.007,246.8
2020-06-17T02:34:03,42.805,6.029,0.009,0.002,-0.014,100.0,106.0,100.0,13.4,1505.3,325.8,-0.7,1.8,2470.418,13.33,0.009,77.5
2020-06-17T02:37:03,42.805,6.029,0.036,-0.011,-0.007,103.0,107.0,100.0,13.4,1505.3,327.4,-0.7,1.8,2470.446,13.33,0.037,107.0
2020-06-17T02:40:03,42.805,6.029,-0.014,0.0,-0.044,101.0,106.0,99.0,13.4,1505.3,323.4,-0.7,1.8,2470.42,13.33,0.014,270.0
2020-06-17T02:43:03,42.805,6.029,-0.019,-0.009,-0.007,102.0,106.0,100.0,13.4,1505.3,326.5,-0.7,1.8,2470.46,13.33,0.021,244.7
2020-06-17T02:46:03,42.805,6.029,0.0,0.012,-0.006,101.0,105.0,100.0,13.4,1505.3,324.4,-0.7,1.8,2470.482,13.33,0.012,0.0
2020-06-17T02:49:03,42.805,6.029,-0.001,0.012,-0.022,102.0,106.0,100.0,13.4,1505.3,327.6,-0.7,1.8,2470.453,13.33,0.012,355.2
2020-06-17T02:52:03,42.805,6.029,-0.006,0.004,-0.018,102.0,106.0,100.0,13.3,1505.4,325.6,-0.7,1.8,2470.426,13.34,0.007,303.7
2020-06-17T02:55:03,42.805,6.029,-0.021,0.021,-0.003,101.0,106.0,100.0,13.4,1505.4,323.4,-0.7,1.8,2470.428,13.34,0.029,315.0
2020-06-17T02:58:03,42.805,6.029,-0.021,0.01,-0.025,102.0,105.0,100.0,13.4,1505.4,323.6,-0.7,1.8,2470.462,13.34,0.023,295.5
2020-06-17T03:04:03,42.805,6.029,0.007,0.0,-0.009,103.0,105.0,100.0,13.3,1505.3,326.7,-0.7,1.8,2470.438,13.32,0.007,90.0
2020-06-17T03:07:03,42.805,6.029,-0.003,-0.008,-0.02,101.0,105.0,100.0,13.4,1505.3,324.0,-0.7,1.8,2470.453,13.32,0.008,200.6
2020-06-17T03:10:03,42.805,6.029,-0.031,-0.003,-0.055,101.0,105.0,99.0,13.4,1505.3,325.0,-0.7,1.8,2470.458,13.33,0.031,264.5
2020-06-17T03:13:03,42.805,6.029,0.025,0.005,0.035,101.0,106.0,99.0,13.4,1505.3,322.8,-0.7,1.8,2470.45,13.33,0.025,78.7
2020-06-17T03:16:03,42.805,6.029,0.017,-0.003,-0.014,101.0,105.0,99.0,13.4,1505.3,327.6,-0.7,1.8,2470.506,13.33,0.017,100.0
2020-06-17T03:19:03,42.805,6.029,0.011,0.013,0.008,102.0,106.0,99.0,13.4,1505.3,324.1,-0.7,1.8,2470.466,13.33,0.017,40.2
2020-06-17T03:22:03,42.805,6.029,-0.002,0.0,0.001,100.0,105.0,99.0,13.3,1505.3,326.0,-0.7,1.9,2470.447,13.33,0.002,270.0
2020-06-17T03:25:03,42.805,6.029,0.026,0.008,-0.011,102.0,106.0,100.0,13.4,1505.3,324.9,-0.7,1.8,2470.463,13.33,0.027,72.9
2020-06-17T03:28:03,42.805,6.029,0.026,0.003,0.042,100.0,106.0,99.0,13.3,1505.3,325.1,-0.7,1.8,2470.443,13.33,0.026,83.4
2020-06-17T03:31:03,42.805,6.029,-0.016,0.002,-0.05,100.0,106.0,100.0,13.4,1505.3,324.9,-0.7,1.8,2470.462,13.33,0.016,277.1
2020-06-17T03:34:03,42.805,6.029,-0.017,-0.002,-0.033,101.0,106.0,99.0,13.4,1505.3,324.6,-0.7,1.8,2470.474,13.33,0.017,263.3
2020-06-17T03:37:03,42.805,6.029,0.03,-0.008,-0.023,101.0,106.0,99.0,13.4,1505.3,322.8,-0.7,1.8,2470.474,13.33,0.031,104.9
2020-06-17T03:40:03,42.805,6.029,0.019,-0.004,0.0,101.0,106.0,99.0,13.3,1505.3,324.1,-0.7,1.8,2470.477,13.33,0.019,101.9
2020-06-17T03:43:03,42.805,6.029,-0.003,0.009,0.009,101.0,105.0,102.0,13.4,1505.3,325.2,-0.7,1.8,2470.499,13.33,0.009,341.6
2020-06-17T03:46:03,42.805,6.029,-0.008,0.006,0.006,102.0,105.0,100.0,13.4,1505.3,327.1,-0.7,1.8,2470.464,13.33,0.01,306.9
2020-06-17T03:49:03,42.805,6.029,-0.006,-0.01,-0.006,102.0,106.0,99.0,13.4,1505.3,327.7,-0.8,1.8,2470.489,13.33,0.011,211.0
2020-06-17T03:52:03,42.805,6.029,0.015,0.0,-0.012,102.0,105.0,100.0,13.4,1505.3,324.6,-0.7,1.8,2470.468,13.33,0.015,90.0
2020-06-17T03:55:03,42.805,6.029,0.001,-0.001,-0.022,101.0,106.0,99.0,13.4,1505.3,324.7,-0.7,1.8,2470.43,13.33,0.001,135.0
2020-06-17T03:58:03,42.805,6.029,-0.006,-0.001,-0.031,101.0,105.0,98.0,13.4,1505.3,325.8,-0.7,1.8,2470.469,13.33,0.006,260.5
2020-06-17T04:04:03,42.805,6.029,-0.003,0.005,0.001,100.0,106.0,100.0,13.4,1505.3,326.1,-0.7,1.8,2470.529,13.31,0.005,329.0
2020-06-17T04:07:03,42.805,6.029,0.045,-0.008,0.027,100.0,106.0,99.0,13.3,1505.3,325.7,-0.7,1.8,2470.506,13.32,0.045,100.1
2020-06-17T04:10:03,42.805,6.029,0.004,-0.022,-0.027,101.0,106.0,100.0,13.4,1505.3,327.2,-0.7,1.8,2470.467,13.32,0.022,169.7
2020-06-17T04:13:03,42.805,6.029,0.007,0.03,0.037,102.0,105.0,100.0,13.3,1505.3,328.1,-0.7,1.8,2470.457,13.33,0.03,13.1
2020-06-17T04:16:03,42.805,6.029,0.012,0.011,-0.005,100.0,106.0,100.0,13.4,1505.3,328.4,-0.7,1.9,2470.448,13.33,0.016,47.5
2020-06-17T04:19:03,42.805,6.029,0.017,-0.003,-0.013,101.0,105.0,100.0,13.4,1505.3,327.6,-0.7,1.8,2470.497,13.33,0.017,100.0
2020-06-17T04:22:03,42.805,6.029,0.042,0.014,0.028,101.0,106.0,99.0,13.4,1505.3,324.7,-0.7,1.8,2470.473,13.33,0.044,71.6
2020-06-17T04:25:03,42.805,6.029,0.011,0.008,-0.015,100.0,106.0,99.0,13.4,1505.3,325.1,-0.7,1.9,2470.53,13.33,0.013,54.0
2020-06-17T04:28:03,42.805,6.029,-0.002,-0.002,0.004,101.0,106.0,100.0,13.3,1505.3,328.4,-0.7,1.8,2470.523,13.33,0.002,225.0
2020-06-17T04:31:03,42.805,6.029,0.006,0.001,-0.009,101.0,105.0,99.0,13.4,1505.3,326.4,-0.7,1.8,2470.472,13.33,0.006,80.5
2020-06-17T04:34:03,42.805,6.029,0.031,0.005,0.001,100.0,105.0,99.0,13.3,1505.3,326.0,-0.7,1.8,2470.474,13.33,0.031,80.8
2020-06-17T04:37:03,42.805,6.029,0.02,0.013,0.007,101.0,105.0,100.0,13.4,1505.3,324.5,-0.7,1.8,2470.457,13.33,0.023,57.0
2020-06-17T04:40:03,42.805,6.029,0.005,0.009,-0.001,100.0,106.0,99.0,13.3,1505.3,327.7,-0.7,1.8,2470.504,13.33,0.01,29.1
2020-06-17T04:43:03,42.805,6.029,0.015,0.012,0.02,100.0,105.0,99.0,13.4,1505.3,323.2,-0.7,1.8,2470.487,13.33,0.019,51.3
2020-06-17T04:46:03,42.805,6.029,0.037,-0.003,0.019,101.0,103.0,99.0,13.4,1505.3,325.6,-0.7,1.8,2470.464,13.33,0.037,94.6
2020-06-17T04:49:03,42.805,6.029,0.014,0.017,0.029,100.0,105.0,99.0,13.4,1505.3,325.6,-0.7,1.8,2470.476,13.33,0.022,39.5
2020-06-17T04:52:03,42.805,6.029,0.017,-0.004,0.009,101.0,103.0,99.0,13.4,1505.3,327.4,-0.7,1.8,2470.503,13.33,0.017,103.2
2020-06-17T04:55:03,42.805,6.029,0.009,0.001,0.041,101.0,104.0,99.0,13.3,1505.3,327.0,-0.7,1.8,2470.441,13.33,0.009,83.7
2020-06-17T04:58:03,42.805,6.029,-0.003,0.016,0.013,101.0,104.0,98.0,13.4,1505.3,324.5,-0.7,1.9,2470.435,13.33,0.016,349.4
2020-06-17T05:04:03,42.805,6.029,0.03,0.017,0.016,101.0,104.0,99.0,13.3,1505.3,324.2,-0.7,1.8,2470.543,13.31,0.034,60.5
2020-06-17T05:07:03,42.805,6.029,0.015,0.019,0.031,101.0,104.0,99.0,13.3,1505.3,324.0,-0.7,1.8,2470.487,13.32,0.024,38.3
2020-06-17T05:10:03,42.805,6.029,0.017,0.002,-0.001,102.0,104.0,98.0,13.4,1505.3,326.9,-0.7,1.8,2470.509,13.32,0.017,83.3
2020-06-17T05:13:03,42.805,6.029,0.001,0.006,-0.013,101.0,104.0,98.0,13.3,1505.3,323.4,-0.7,1.9,2470.459,13.32,0.006,9.5
2020-06-17T05:16:03,42.805,6.029,0.017,0.006,0.017,101.0,104.0,99.0,13.4,1505.3,325.5,-0.7,1.8,2470.445,13.33,0.018,70.6
2020-06-17T05:19:03,42.805,6.029,-0.023,0.014,0.016,99.0,104.0,99.0,13.3,1505.3,328.2,-0.7,1.8,2470.485,13.33,0.026,301.3
2020-06-17T05:22:03,42.805,6.029,0.007,0.007,-0.002,101.0,105.0,99.0,13.4,1505.3,327.4,-0.7,1.8,2470.439,13.33,0.009,45.0
2020-06-17T05:25:03,42.805,6.029,-0.004,-0.003,-0.003,102.0,104.0,99.0,13.3,1505.3,328.4,-0.7,1.8,2470.438,13.33,0.005,233.1
2020-06-17T05:28:03,42.805,6.029,0.017,0.016,0.019,101.0,105.0,98.0,13.4,1505.3,326.5,-0.7,1.9,2470.426,13.33,0.023,46.7
2020-06-17T05:31:03,42.805,6.029,0.011,0.018,-0.004,100.0,105.0,99.0,13.3,1505.3,328.0,-0.7,1.8,2470.456,13.33,0.021,31.4
2020-06-17T05:34:03,42.805,6.029,0.013,0.017,0.01,101.0,104.0,99.0,13.4,1505.3,323.5,-0.7,1.9,2470.452,13.33,0.021,37.4
2020-06-17T05:37:03,42.805,6.029,0.012,0.024,0.016,101.0,104.0,100.0,13.3,1505.3,326.2,-0.7,1.8,2470.448,13.33,0.026,26.6
2020-06-17T05:40:03,42.805,6.029,0.011,0.02,0.015,100.0,103.0,99.0,13.4,1505.3,326.2,-0.7,1.8,2470.451,13.33,0.022,28.8
2020-06-17T05:43:03,42.805,6.029,0.001,0.0,-0.043,101.0,104.0,100.0,13.4,1505.3,324.7,-0.7,1.8,2470.454,13.33,0.001,90.0
2020-06-17T05:46:03,42.805,6.029,-0.002,0.006,-0.017,101.0,104.0,98.0,13.3,1505.3,326.2,-0.7,1.9,2470.42,13.33,0.006,341.6
2020-06-17T05:49:03,42.805,6.029,0.012,0.01,0.009,101.0,105.0,99.0,13.3,1505.3,323.9,-0.7,1.8,2470.437,13.33,0.015,50.2
2020-06-17T05:52:03,42.805,6.029,-0.022,-0.008,-0.026,102.0,106.0,99.0,13.4,1505.3,325.9,-0.7,1.9,2470.474,13.33,0.023,250.0
2020-06-17T05:55:03,42.805,6.029,0.013,0.004,-0.01,101.0,105.0,99.0,13.4,1505.3,326.3,-0.7,1.8,2470.451,13.33,0.013,72.9
2020-06-17T05:58:03,42.805,6.029,0.008,-0.012,-0.032,100.0,105.0,99.0,13.4,1505.3,325.4,-0.7,1.8,2470.465,13.33,0.014,146.3
2020-06-17T06:04:03,42.805,6.029,-0.005,0.018,-0.005,101.0,106.0,99.0,13.4,1505.3,326.8,-0.8,1.8,2470.489,13.31,0.018,344.5
2020-06-17T06:07:03,42.805,6.029,-0.008,-0.001,-0.023,100.0,104.0,99.0,13.3,1505.3,325.4,-0.7,1.8,2470.483,13.32,0.008,262.9
2020-06-17T06:10:03,42.805,6.029,0.015,0.009,0.0,102.0,104.0,99.0,13.3,1505.3,327.2,-0.7,1.8,2470.43,13.32,0.017,59.0
2020-06-17T06:13:03,42.805,6.029,0.006,-0.016,-0.033,101.0,104.0,100.0,13.4,1505.3,327.2,-0.7,1.8,2470.465,13.32,0.017,159.4
2020-06-17T06:16:03,42.805,6.029,0.057,-0.006,0.019,101.0,105.0,99.0,13.4,1505.3,323.5,-0.7,1.8,2470.466,13.33,0.057,96.0
2020-06-17T06:19:03,42.805,6.029,0.04,-0.004,0.018,102.0,106.0,100.0,13.3,1505.3,324.1,-0.7,1.8,2470.473,13.33,0.04,95.7
2020-06-17T06:22:03,42.805,6.029,0.006,0.014,-0.011,103.0,105.0,99.0,13.4,1505.3,324.9,-0.7,1.8,2470.461,13.33,0.015,23.2
2020-06-17T06:25:03,42.805,6.029,0.055,-0.006,0.011,102.0,105.0,99.0,13.4,1505.3,327.4,-0.7,1.8,2470.491,13.33,0.055,96.2
2020-06-17T06:28:03,42.805,6.029,0.035,0.023,0.015,102.0,104.0,99.0,13.4,1505.3,325.4,-0.7,1.8,2470.461,13.33,0.041,56.7
2020-06-17T06:31:03,42.805,6.029,0.045,0.017,0.031,102.0,104.0,101.0,13.3,1505.3,324.9,-0.7,1.8,2470.443,13.33,0.048,69.3
2020-06-17T06:34:03,42.805,6.029,0.017,0.0,-0.021,100.0,106.0,100.0,13.3,1505.3,327.0,-0.7,1.8,2470.455,13.33,0.017,90.0
2020-06-17T06:37:03,42.805,6.029,0.012,0.002,-0.006,101.0,107.0,99.0,13.4,1505.3,324.8,-0.7,1.8,2470.444,13.33,0.012,80.5
2020-06-17T06:40:03,42.805,6.029,-0.039,-0.005,-0.055,100.0,107.0,101.0,13.4,1505.3,325.2,-0.7,1.8,2470.462,13.33,0.039,262.7
2020-06-17T06:43:03,42.805,6.029,0.016,-0.009,-0.021,100.0,106.0,100.0,13.4,1505.3,326.9,-0.7,1.8,2470.471,13.33,0.018,119.4
2020-06-17T06:46:03,42.805,6.029,0.025,0.005,0.014,103.0,107.0,98.0,13.3,1505.3,325.5,-0.7,1.8,2470.447,13.33,0.025,78.7
2020-06-17T06:49:03,42.805,6.029,0.015,-0.001,-0.013,100.0,106.0,100.0,13.4,1505.3,325.3,-0.7,1.8,2470.494,13.33,0.015,93.8
2020-06-17T06:52:03,42.805,6.029,0.013,0.0,0.007,102.0,106.0,99.0,13.4,1505.3,325.5,-0.7,1.8,2470.429,13.33,0.013,90.0
2020-06-17T06:55:03,42.805,6.029,-0.012,-0.003,-0.019,100.0,107.0,100.0,13.3,1505.3,323.2,-0.7,1.8,2470.465,13.33,0.012,256.0
2020-06-17T06:58:03,42.805,6.029,0.04,-0.033,0.0,102.0,107.0,99.0,13.3,1505.3,327.5,-0.7,1.8,2470.425,13.33,0.051,129.5
2020-06-17T07:04:03,42.805,6.029,0.002,-0.007,-0.02,102.0,107.0,100.0,13.4,1505.3,326.7,-0.8,1.8,2470.494,13.31,0.007,164.1
2020-06-17T07:07:03,42.805,6.029,0.013,-0.003,0.004,102.0,107.0,100.0,13.4,1505.3,326.6,-0.7,1.8,2470.454,13.32,0.013,103.0
2020-06-17T07:10:03,42.805,6.029,-0.003,0.012,0.001,102.0,108.0,98.0,13.3,1505.3,325.6,-0.7,1.8,2470.477,13.32,0.012,346.0
2020-06-17T07:13:03,42.805,6.029,-0.01,-0.013,-0.045,101.0,107.0,100.0,13.3,1505.3,324.7,-0.7,1.8,2470.484,13.32,0.016,217.6
2020-06-17T07:16:03,42.805,6.029,0.015,0.002,0.015,101.0,107.0,99.0,13.4,1505.3,323.3,-0.7,1.8,2470.49,13.33,0.015,82.4
2020-06-17T07:19:03,42.805,6.029,-0.001,0.01,-0.014,102.0,105.0,100.0,13.4,1505.3,327.7,-0.7,1.8,2470.397,13.33,0.01,354.3
2020-06-17T07:22:03,42.805,6.029,0.008,0.002,-0.022,103.0,105.0,99.0,13.3,1505.3,324.7,-0.7,1.8,2470.418,13.33,0.008,76.0
2020-06-17T07:25:03,42.805,6.029,-0.026,0.008,-0.047,103.0,108.0,99.0,13.3,1505.3,323.1,-0.7,1.8,2470.436,13.33,0.027,287.1
2020-06-17T07:28:03,42.805,6.029,0.015,-0.005,-0.013,101.0,108.0,100.0,13.3,1505.3,327.4,-0.7,1.8,2470.448,13.33,0.015,108.4
2020-06-17T07:31:03,42.805,6.029,0.015,0.006,0.001,101.0,107.0,100.0,13.4,1505.3,324.4,-0.7,1.8,2470.407,13.33,0.016,68.2
2020-06-17T07:34:03,42.805,6.029,0.009,-0.008,-0.018,101.0,108.0,98.0,13.3,1505.3,325.4,-0.7,1.8,2470.406,13.33,0.012,131.6
2020-06-17T07:37:03,42.805,6.029,0.019,0.001,-0.001,102.0,109.0,99.0,13.4,1505.3,327.2,-0.8,1.8,2470.418,13.33,0.019,87.0
2020-06-17T07:40:03,42.805,6.029,0.006,0.003,-0.025,101.0,109.0,100.0,13.3,1505.3,324.3,-0.7,1.8,2470.393,13.33,0.006,63.4
2020-06-17T07:43:03,42.805,6.029,0.039,0.01,0.02,100.0,106.0,100.0,13.4,1505.3,323.9,-0.7,1.8,2470.409,13.33,0.04,75.6
2020-06-17T07:46:03,42.805,6.029,0.025,0.0,-0.005,101.0,108.0,99.0,13.3,1505.3,324.8,-0.7,1.8,2470.423,13.33,0.025,90.0
2020-06-17T07:49:03,42.805,6.029,0.048,0.004,-0.019,102.0,108.0,99.0,13.4,1505.3,324.8,-0.7,1.9,2470.402,13.33,0.048,85.2
2020-06-17T07:52:03,42.805,6.029,0.025,-0.005,0.0,102.0,106.0,99.0,13.3,1505.3,326.6,-0.7,1.8,2470.387,13.33,0.025,101.3
2020-06-17T07:55:03,42.805,6.029,0.022,0.008,0.021,101.0,107.0,99.0,13.3,1505.3,327.7,-0.7,1.8,2470.43,13.33,0.023,70.0
2020-06-17T07:58:03,42.805,6.029,0.022,-0.012,0.023,101.0,106.0,100.0,13.4,1505.3,323.8,-0.7,1.8,2470.414,13.33,0.025,118.6
2020-06-17T08:04:03,42.805,6.029,0.033,-0.008,0.034,102.0,107.0,99.0,13.3,1505.3,327.4,-0.7,1.8,2470.368,13.31,0.033,103.6
2020-06-17T08:07:03,42.805,6.029,0.022,0.009,0.008,102.0,105.0,99.0,13.4,1505.3,323.4,-0.7,1.8,2470.38,13.31,0.023,67.8
2020-06-17T08:10:03,42.805,6.029,0.023,-0.007,0.005,102.0,106.0,99.0,13.3,1505.3,323.4,-0.7,1.8,2470.389,13.32,0.024,106.9
2020-06-17T08:13:03,42.805,6.029,0.032,0.007,0.008,101.0,105.0,99.0,13.4,1505.3,323.0,-0.7,1.9,2470.426,13.32,0.032,77.7
2020-06-17T08:16:03,42.805,6.029,0.0,0.008,-0.013,101.0,105.0,99.0,13.4,1505.3,327.2,-0.7,1.8,2470.383,13.33,0.008,0.0
2020-06-17T08:19:03,42.805,6.029,0.01,-0.013,0.003,101.0,105.0,99.0,13.4,1505.3,324.2,-0.7,1.8,2470.371,13.33,0.016,142.4
2020-06-17T08:22:03,42.805,6.029,0.026,0.004,0.026,101.0,105.0,100.0,13.4,1505.3,323.6,-0.7,1.9,2470.394,13.33,0.026,81.3
2020-06-17T08:25:03,42.805,6.029,0.021,0.005,0.023,102.0,107.0,99.0,13.4,1505.3,326.0,-0.7,1.9,2470.381,13.33,0.021,76.6
2020-06-17T08:28:03,42.805,6.029,0.045,0.01,0.012,102.0,108.0,99.0,13.4,1505.3,323.3,-0.7,1.8,2470.384,13.33,0.046,77.5
2020-06-17T08:31:03,42.805,6.029,0.011,0.022,0.005,103.0,108.0,100.0,13.4,1505.3,323.0,-0.7,1.8,2470.399,13.33,0.024,26.6
2020-06-17T08:34:03,42.805,6.029,0.036,0.0,0.038,102.0,107.0,100.0,13.4,1505.3,327.9,-0.7,1.8,2470.373,13.33,0.036,90.0
2020-06-17T08:37:03,42.805,6.029,0.015,0.004,-0.019,102.0,108.0,101.0,13.3,1505.3,324.8,-0.7,1.8,2470.374,13.33,0.015,75.1
2020-06-17T08:40:03,42.805,6.029,0.025,-0.005,-0.007,103.0,107.0,99.0,13.4,1505.3,325.1,-0.7,1.8,2470.389,13.33,0.025,101.3
2020-06-17T08:43:03,42.805,6.029,0.018,0.012,0.011,102.0,108.0,99.0,13.4,1505.3,324.2,-0.7,1.8,2470.359,13.33,0.021,56.3
2020-06-17T08:46:03,42.805,6.029,0.029,-0.002,-0.002,102.0,107.0,100.0,13.4,1505.3,323.5,-0.7,1.8,2470.376,13.33,0.029,93.9
2020-06-17T08:49:03,42.805,6.029,0.009,0.002,-0.015,102.0,108.0,100.0,13.4,1505.3,327.5,-0.7,1.8,2470.371,13.33,0.009,77.5
2020-06-17T08:52:03,42.805,6.029,0.014,0.0,-0.017,102.0,107.0,100.0,13.4,1505.3,328.1,-0.7,1.8,2470.358,13.33,0.014,90.0
2020-06-17T08:55:03,42.805,6.029,0.048,0.005,0.019,101.0,106.0,99.0,13.4,1505.3,325.3,-0.7,1.8,2470.384,13.33,0.048,84.1
2020-06-17T08:58:03,42.805,6.029,0.024,0.001,-0.009,102.0,108.0,99.0,13.4,1505.3,324.9,-0.7,1.8,2470.35,13.33,0.024,87.6
2020-06-17T09:04:03,42.805,6.029,0.019,0.001,-0.019,103.0,107.0,100.0,13.3,1505.3,326.3,-0.7,1.8,2470.373,13.31,0.019,87.0
2020-06-17T09:07:03,42.805,6.029,0.005,0.012,-0.007,103.0,108.0,99.0,13.4,1505.3,323.5,-0.8,1.8,2470.374,13.31,0.013,22.6
2020-06-17T09:10:03,42.805,6.029,-0.001,-0.026,-0.024,101.0,108.0,99.0,13.3,1505.3,326.9,-0.7,1.8,2470.422,13.32,0.026,182.2
2020-06-17T09:13:03,42.805,6.029,0.015,0.005,-0.023,101.0,109.0,100.0,13.4,1505.3,327.4,-0.7,1.8,2470.374,13.32,0.015,71.6
2020-06-17T09:16:03,42.805,6.029,-0.016,-0.011,-0.024,102.0,109.0,101.0,13.4,1505.3,324.7,-0.7,1.8,2470.339,13.32,0.019,235.5
2020-06-17T09:19:03,42.805,6.029,0.019,0.003,-0.018,102.0,109.0,100.0,13.4,1505.3,326.5,-0.7,1.8,2470.371,13.32,0.019,81.0
2020-06-17T09:22:03,42.805,6.029,0.028,0.0,0.016,101.0,107.0,100.0,13.3,1505.3,324.3,-0.7,1.8,2470.373,13.32,0.028,90.0
2020-06-17T09:25:03,42.805,6.029,-0.003,-0.007,0.002,102.0,107.0,99.0,13.4,1505.3,325.2,-0.7,1.8,2470.346,13.32,0.007,203.2
2020-06-17T09:28:03,42.805,6.029,0.007,0.001,-0.005,101.0,108.0,101.0,13.4,1505.3,325.3,-0.7,1.8,2470.358,13.32,0.007,81.9
2020-06-17T09:31:03,42.805,6.029,0.041,-0.005,0.009,101.0,107.0,100.0,13.4,1505.3,324.1,-0.7,1.8,2470.314,13.33,0.041,97.0
2020-06-17T09:34:03,42.805,6.029,0.014,-0.005,-0.026,101.0,106.0,100.0,13.3,1505.3,324.9,-0.8,1.8,2470.297,13.33,0.014,109.6
2020-06-17T09:37:03,42.805,6.029,0.024,-0.003,0.029,102.0,107.0,99.0,13.3,1505.3,325.2,-0.7,1.8,2470.368,13.33,0.024,97.1
2020-06-17T09:40:03,42.805,6.029,0.057,-0.002,0.024,102.0,108.0,99.0,13.4,1505.3,326.3,-0.7,1.8,2470.341,13.33,0.057,92.0
2020-06-17T09:43:03,42.805,6.029,0.023,0.003,-0.029,102.0,108.0,100.0,13.4,1505.3,328.3,-0.7,1.8,2470.338,13.33,0.023,82.6
2020-06-17T09:46:03,42.805,6.029,0.017,0.013,0.025,101.0,106.0,99.0,13.4,1505.3,326.7,-0.7,1.9,2470.318,13.33,0.021,52.6
2020-06-17T09:49:03,42.805,6.029,0.003,-0.005,-0.041,102.0,105.0,101.0,13.4,1505.3,324.9,-0.7,1.8,2470.299,13.33,0.005,149.0
2020-06-17T09:52:03,42.805,6.029,0.062,-0.004,0.011,102.0,108.0,100.0,13.4,1505.3,324.2,-0.7,1.8,2470.373,13.33,0.062,93.7
2020-06-17T09:55:03,42.805,6.029,0.015,-0.019,-0.013,102.0,107.0,99.0,13.3,1505.3,326.4,-0.7,1.8,2470.324,13.33,0.024,141.7
2020-06-17T09:58:03,42.805,6.029,0.039,-0.001,0.033,102.0,107.0,99.0,13.4,1505.3,327.1,-0.7,1.8,2470.319,13.33,0.039,91.5
2020-06-17T10:04:03,42.805,6.029,0.025,-0.008,-0.014,101.0,109.0,100.0,13.4,1505.3,323.7,-0.7,1.8,2470.379,13.31,0.026,107.7
2020-06-17T10:07:03,42.805,6.029,0.02,0.008,-0.002,101.0,107.0,101.0,13.4,1505.3,326.7,-0.7,1.9,2470.375,13.31,0.021,68.2